Wind_Speed
30 29 30 32 31 32 31 30 28 30 31 27 29 30 29 30 29 28 32 39 42 39
29 29 31 34 35 35 33 32 30 31 31 31 32 36 37 35 33 32 31 35 32 37
30 30 32 33 34 35 33 31 30 30 30 29 31 33 28 25 27 28 30 27 33 33
29 29 30 30 30 30 30 30 30 29 28 29 30 28 30 29 27 29 27 29 32 38
28 27 28 29 29 26 30 32 31 29 29 28 26 25 23 26 26 30 25 33 31 37
26 26 28 29 28 27 26 28 30 29 28 29 31 31 31 24 26 32 31 36 36 34
26 27 27 27 24 20 16 17 23 28 29 28 29 30 32 31 30 32 33 38 38 34
26 25 25 24 23 22 16 10 7 12 20 25 27 30 30 28 26 30 30 28 31 33
26 26 26 25 23 25 25 22 16 10 6 4 11 16 20 23 27 28 30 28 27 27
27 25 25 25 25 26 27 27 26 24 21 22 21 17 17 23 26 26 29 31 33 29
26 24 25 25 27 26 27 30 29 30 27 24 25 28 28 32 34 33 32 29 31 36
23 22 24 25 25 25 27 30 30 32 31 29 30 30 34 35 29 34 32 31 28 29
20 22 22 25 25 26 24 28 30 33 33 33 36 34 32 36 31 31 28 31 28 28
20 23 24 26 27 27 27 29 30 34 37 37 35 35 31 31 30 25 27 26 27 29
Wind_Direction
294 288 283 278 272 268 264 260 258 256 251 248 246 243 241 240 239 235 230 235 215 217
295 288 283 281 275 267 263 257 255 253 250 250 250 247 245 241 239 232 232 230 214 218
298 294 290 285 279 266 260 254 252 250 246 245 244 250 250 252 246 240 235 229 209 216
306 304 300 293 294 271 260 251 249 246 246 247 248 245 241 239 241 245 226 225 204 210
312 312 307 302 299 296 264 254 245 241 237 241 243 248 252 245 241 248 242 213 200 195
321 322 318 315 316 314 296 263 245 237 233 238 248 244 241 250 239 242 246 220 207 197
331 335 332 333 339 333 322 293 254 240 240 243 239 245 250 246 242 243 234 216 209 202
342 349 353 355 358 0 9 359 310 260 244 242 243 244 240 237 224 205 191 188 183 188
354 359 359 359 9 23 23 27 43 56 88 171 234 237 224 206 177 167 154 143 151 157
1 1 7 9 14 23 28 32 34 40 56 73 81 111 123 138 135 126 127 130 131 130
5 4 12 19 22 24 38 41 39 40 47 62 76 90 95 106 110 104 106 108 117 125
14 16 22 23 22 28 40 47 46 46 47 52 56 70 92 98 88 89 91 111 119 122
28 32 30 37 30 36 44 51 50 51 50 55 55 62 74 89 77 80 83 85 89 101
36 46 53 56 52 47 47 52 53 55 49 51 60 61 71 86 89 87 84 82 76 80
Height
696 691 685 680 676 670 666 664 663 663 663 662 662 663 666 668 669 671 672 682 676 677
689 683 676 671 666 660 657 654 653 653 653 654 655 656 657 657 659 663 666 666 663 671
681 674 667 660 654 648 645 644 644 643 644 644 645 647 647 647 650 651 650 651 655 664
674 666 660 653 644 637 634 634 634 634 635 636 637 638 639 641 643 645 643 645 646 659
670 662 654 646 637 631 626 623 624 625 626 628 629 631 633 634 636 638 638 640 644 648
667 658 651 642 632 625 619 615 614 616 617 619 621 623 626 628 630 631 632 634 639 640
665 657 649 640 631 621 613 609 607 607 608 610 613 615 619 622 623 624 626 628 632 638
665 656 648 639 631 622 613 608 605 603 603 603 604 607 610 612 614 617 619 623 626 633
666 658 650 641 633 624 617 612 607 604 602 600 600 602 603 605 609 613 615 621 628 634
669 662 654 647 639 630 624 619 615 611 607 605 604 604 606 609 611 615 619 624 627 640
673 666 659 652 645 639 632 627 624 621 618 616 615 612 613 614 617 620 626 632 637 641
678 672 665 659 653 648 642 635 634 632 629 627 625 621 619 621 628 629 635 639 649 653
682 676 671 666 661 657 652 648 645 640 639 637 634 634 631 632 635 641 651 655 661 661
686 681 677 673 668 663 660 656 654 652 651 648 649 649 647 645 653 656 659 665 668 666